User: anonymous   Login
Location: Unspecified
(0.0000°N, 0.0000°E)
Time: 13:45:43
(UTC+00:00)
Language:

Kitsat-3 - Orbit

View from above orbital plane
View from above orbital plane
View from above satellite
View from above satellite

Ground track
Ground track

The orbit data is extracted from the following two-line orbital elements,

1 25756U 99029A   17114.86379174 +.00000073 +00000-0 +28574-4 0  9993
2 25756 098.4127 034.2564 0014732 048.0228 312.2221 14.53662304949653
Epoch (UTC): 24 April 2017 20:43:51
Eccentricity: 0.0014732
inclination: 98.4127°
perigee height: 703 km
apogee height: 724 km
right ascension of ascending node: 34.2564°
argument of perigee: 48.0228°
revolutions per day: 14.53662304
mean anomaly at epoch: 312.2221°
orbit number at epoch: 94965

The dashed part of the orbit path shows where the satellite is in the earth's shadow,  

DLR